Showing default

DUMMY SAT, 40073

Orbit data source: Space-Track

DUMMY SAT, 40073 is a payload satellite owned by DND DSD (CIS) in SSO that was launched on Tue, 08 Jul 2014 UTC via a SOYUZ-2-1B launch vehicle from the Tyuratam Missile And Space Complex (TTMTR). Payload-class satellites include a variety of spacecraft equipped with specific instruments for various scientific and technological missions. These include communications satellites like Starlink; space stations such as the ISS; scientific satellites like the Hubble; Earth observation satellites from companies like Planet Labs, Umbra, and HawkEye 360; GPS; miniature CubeSats for education and research; and military/defense satellites.

Loading next visibility...
Identifier
40073, 2014-037E
Orbit
SSO
Country
Flag of CISCIS
Related business
Manufacturer
ComDev
Mission
Non-operational Civil Technology
Bus & Motor
Unknown
Mass
75 kg wet, 75 kg dry
Launch date (UTC)
2014-07-08 (11 years ago)
Launch vehicle
SOYUZ-2-1B
Launch site
Tyuratam Missile And Space Complex (TTMTR)
Object type
Payload
Rocket body
Debris
Shape & HBR
Box, 0.4 m
Radar Cross Section
0.800 m², Medium (>0.1 m² and < 1m²)

Expand to show TLE details & history
Last TLE update: 18 hours ago

TLE from 18 hours ago
0 DUMMY SAT
1 40073U 14037E   25301.65274166  .00000769  00000-0  10243-3 0  9992
2 40073  98.3444 236.8820 0005308 350.3170   9.7939 14.82761236611120
Epoch: 2025-10-28T15:39Z
TLE epoch observation values (Epoch: 2025-10-28T15:39:56.879Z)
Latitude
-0.00001°
Longitude
-35.34215°
Altitude
619.972 km
Speed
7.551 km/s
True Right ascension
15h 47m 31s
True Declination
0° 00' 00"
Sunlit
Object was in daylight at epoch
Visualization orbit readout
Latitude
Unknown
Longitude
Unknown
Altitude
Unknown
Speed
Unknown
Apparent Right ascension
Unknown
Apparent Declination
Unknown
Sunlit
N/A
Visualization observer readout
Local Sidereal Time
05:31:41
Azimuth
Unknown
Elevation
Unknown
Doppler factor
Unknown
Orbital elements
Apogee altitude
621.393 km
Perigee altitude
613.966 km
Semi-major axis
6,995.816 km
Eccentricity
0.00053
Inclination
98.3444°
RAAN
236.882°
Arg. of periapsis
350.317°
True anomaly
9.80425°
Mean anomaly
9.7939°
Eccentric anomaly
9.79908°
Mean motion
3.70925 °/min
Orbital period
97.05 mins
BSTAR
0.00010243
Loading maneuver chart data...
Computing Atmospheric mass density...
Loading historical data...
Loading historical data...
Loading historical data...
Loading historical data...
Loading historical data...
Loading historical data...
Loading historical data...

Documentation

Showing up to 5 results
|